Roanoke, VA

7:01 AM EST on February 13, 2016 (GMT -0500)
Roanoke Regional-Woodrum

Weather History for KROA - June, 2013

Change the Weather History Date:

Wednesday, June 26, 2013

  Actual Average Record
Temperature  
Mean Temperature 78 °F 75 °F  
Max Temperature 90 °F 86 °F 101 °F (1930)
Min Temperature 66 °F 65 °F 46 °F (1979)
Degree Days  
Heating Degree Days 0 0  
Month to date heating degree days 1 9  
Since 1 June heating degree days 1 9  
Since 1 July heating degree days 4001 4142  
Cooling Degree Days 13 10  
Month to date cooling degree days 218 203  
Year to date cooling degree days 368 319  
Since 1 June cooling degree days 218 203  
Growing Degree Days 28 (Base 50)    
Moisture  
Dew Point 67 °F    
Average Humidity 75    
Maximum Humidity 100    
Minimum Humidity 50    
Precipitation  
Precipitation 0.81 in 0.11 in 4.08 in (2006)
Month to date precipitation 6.22 3.35  
Year to date precipitation 26.76 20.05  
Snow  
Snow 0.00 in - - ()
Month to date snowfall 0.0  
Since 1 June snowfall 0.0  
Since 1 July snowfall 18.3  
Snow Depth 0.00 in    
Sea Level Pressure  
Sea Level Pressure 29.97 in    
Wind  
Wind Speed 5 mph (West)    
Max Wind Speed 49 mph    
Max Gust Speed 71 mph    
Visibility 8 miles    
Events Fog , Rain , Thunderstorm    
T = Trace of Precipitation, MM = Missing Value Source: NWS Daily Summary

Daily Weather History Graph

Daily Weather History Graph

Search for Another Location

Airport or City:

Trip Planner

Search our weather history database for the weather conditions in past years. The results will help you decide how hot, cold, wet, or windy it might be!

Date:

Astronomy

Jun. 26, 2013 Rise Set
Actual Time 6:01 AM EDT 8:44 PM EDT
Civil Twilight 5:30 AM EDT 9:15 PM EDT
Nautical Twilight 4:51 AM EDT 9:54 PM EDT
Astronomical Twilight 4:07 AM EDT 10:37 PM EDT
Moon 11:12 PM EDT (6/26) 9:45 AM EDT (6/26)
Length of Visible Light 15h 45m
Length of Day
14h 43m
Waning Gibbous, 85% of the Moon is Illuminated
Jun 26
Waning Gibbous
Jun 30
Last Quarter
Jul 8
New
Jul 15
First Quarter
Jul 22
Full

Hourly Weather History & Observations

Time (EDT) Temp. Heat Index Dew Point Humidity Pressure Visibility Wind Dir Wind Speed Gust Speed Precip Events Conditions
12:54 AM 73.0 °F - 64.9 °F 76% 30.00 in 10.0 mi WNW 5.8 mph - N/A   Clear
1:54 AM 72.0 °F - 64.9 °F 78% 29.99 in 10.0 mi West 3.5 mph - N/A   Clear
2:54 AM 71.1 °F - 64.0 °F 78% 29.98 in 10.0 mi West 4.6 mph - N/A   Clear
3:54 AM 71.1 °F - 64.0 °F 78% 29.96 in 10.0 mi West 5.8 mph - N/A   Clear
4:54 AM 71.1 °F - 64.9 °F 81% 29.97 in 10.0 mi West 9.2 mph - N/A   Clear
5:54 AM 71.1 °F - 64.9 °F 81% 29.98 in 10.0 mi WNW 6.9 mph - N/A   Clear
6:54 AM 71.1 °F - 64.9 °F 81% 29.99 in 10.0 mi WNW 3.5 mph - N/A   Clear
7:54 AM 75.0 °F - 66.0 °F 73% 29.99 in 10.0 mi Variable 4.6 mph - N/A   Clear
8:54 AM 77.0 °F - 66.0 °F 69% 29.98 in 10.0 mi WSW 9.2 mph - N/A   Clear
9:54 AM 80.6 °F 83.2 °F 68.0 °F 65% 30.01 in 10.0 mi West 8.1 mph - N/A   Clear
10:54 AM 82.9 °F 85.8 °F 68.0 °F 60% 29.97 in 10.0 mi WSW 8.1 mph - N/A   Partly Cloudy
11:54 AM 86.0 °F 90.1 °F 69.1 °F 57% 29.96 in 10.0 mi WNW 6.9 mph - N/A   Scattered Clouds
12:54 PM 89.1 °F 94.1 °F 70.0 °F 53% 29.95 in 10.0 mi NNW 5.8 mph - N/A   Scattered Clouds
1:54 PM 87.1 °F 89.2 °F 66.0 °F 49% 29.92 in 10.0 mi Calm Calm - N/A   Mostly Cloudy
2:34 PM 89.6 °F 92.2 °F 66.2 °F 46% 29.94 in 10.0 mi Calm Calm - 0.00 in Rain , Thunderstorm Light Thunderstorms and Rain
2:54 PM 79.0 °F - 66.9 °F 66% 29.95 in 6.0 mi West 32.2 mph 44.9 mph 0.00 in Thunderstorm Unknown
2:57 PM 73.4 °F - 66.2 °F 78% 30.00 in 0.8 mi West 47.2 mph 71.3 mph 0.00 in Rain , Thunderstorm Thunderstorms and Rain
3:03 PM 66.2 °F - 62.6 °F 88% 30.03 in 0.2 mi NW 25.3 mph 71.3 mph 0.09 in Fog , Rain , Thunderstorm Heavy Thunderstorms and Rain
3:10 PM 68.0 °F - 64.4 °F 88% 30.00 in 0.5 mi West 10.4 mph 43.7 mph 0.64 in Fog , Rain , Thunderstorm Heavy Thunderstorms and Rain
3:21 PM 69.8 °F - 64.4 °F 83% 30.00 in 1.2 mi WSW 5.8 mph - 0.73 in Rain , Thunderstorm Heavy Thunderstorms and Rain
3:26 PM 69.8 °F - 66.2 °F 88% 30.00 in 2.5 mi SW 6.9 mph - 0.75 in Rain , Thunderstorm Light Thunderstorms and Rain
3:33 PM 69.8 °F - 66.2 °F 88% 30.00 in 8.0 mi South 8.1 mph - 0.75 in Rain , Thunderstorm Light Thunderstorms and Rain
3:54 PM 69.1 °F - 66.2 °F 91% 29.95 in 9.0 mi East 3.5 mph - 0.75 in Rain , Thunderstorm Light Thunderstorms and Rain
4:44 PM 69.8 °F - 68.0 °F 94% 29.97 in 9.0 mi WSW 3.5 mph - 0.06 in Rain Light Rain
4:54 PM 70.0 °F - 67.1 °F 91% 29.94 in 10.0 mi West 4.6 mph - 0.06 in Rain Light Rain
5:54 PM 71.1 °F - 66.9 °F 87% 29.94 in 10.0 mi West 3.5 mph - 0.00 in   Scattered Clouds
6:54 PM 72.0 °F - 70.0 °F 93% 29.93 in 10.0 mi West 3.5 mph - N/A   Partly Cloudy
7:54 PM 73.0 °F - 71.1 °F 93% 29.93 in 10.0 mi WNW 3.5 mph - N/A   Partly Cloudy
8:54 PM 72.0 °F - 71.1 °F 97% 29.92 in 10.0 mi South 3.5 mph - N/A   Scattered Clouds
9:54 PM 71.1 °F - 69.1 °F 93% 29.96 in 10.0 mi Calm Calm - N/A   Clear
10:54 PM 71.1 °F - 69.1 °F 93% 29.92 in 8.0 mi Calm Calm - N/A   Clear
11:54 PM 70.0 °F - 68.0 °F 93% 29.92 in 10.0 mi Calm Calm - N/A   Partly Cloudy